Regional Weather Roundup
Issued by NWS

Home | Current Version | Previous Version | Text Only | Print | Product List | Glossary On
Versions: 1 2 3 4 5 6 7 8 9 10 11 12 13 14 15 16 17 18 19 20 21 22 23 24 25 26 27 28 29 30 31 32 33 34 35 36 37 38 39 40 41 42 43 44 45 46 47 48 49 50
000
ASUS43 KLOT 251408
RWRIL

ILLINOIS REGIONAL WEATHER ROUNDUP
NATIONAL WEATHER SERVICE CHICAGO/ROMEOVILLE IL
900 AM CDT SUN SEP 25 2016

NOTE: "FAIR" INDICATES FEW OR NO CLOUDS BELOW 12,000 FEET WITH NO
SIGNIFICANT WEATHER AND/OR OBSTRUCTIONS TO VISIBILITY.

* THESE STATIONS ARE NOT UNDER NWS QUALITY CONTROL. THEY ALSO MAY NOT
  REPORT WEATHER SUCH AS PRECIPITATION OR FOG.

ILZ001-002-007-009-015-016-024-251500-
NORTHWEST ILLINOIS

CITY           SKY/WX    TMP DP  RH WIND       PRES   REMARKS
MOLINE         SUNNY     73  66  78 SE6       29.98F
STERLING*      SUNNY     71  67  87 SE8       30.02F
SAVANNA*       MOSUNNY   71  67  86 S7        30.01S
$$

ILZ003-004-008-010-011-017-018-251500-
NORTH CENTRAL ILLINOIS

CITY           SKY/WX    TMP DP  RH WIND       PRES   REMARKS
ROCKFORD       PTSUNNY   70  65  84 S12       30.05F
FREEPORT*      SUNNY     70  66  89 SE9       30.04S
ROCHELLE*      MOSUNNY   70  65  84 S10       30.06S
DE KALB*       CLOUDY    67  64  89 SE13      30.07F
$$

ILZ005-006-012>014-019>023-251500-
NORTHEAST ILLINOIS

CITY           SKY/WX    TMP DP  RH WIND       PRES   REMARKS
CHICAGO-OHARE  PTSUNNY   67  58  72 SE10      30.08S
CHICAGO-MIDWAY MOSUNNY   68  56  65 SE7       30.08F
AURORA         MOSUNNY   68  62  81 SE13      30.07F
LANSING*       MOSUNNY   65  58  77 SE8       30.10F
JOLIET*        SUNNY     68  63  82 SE10      30.08F
WAUKEGAN       SUNNY     67  59  75 SE15G22   30.07F
DUPAGE AIRPORT SUNNY     68  60  75 SE8       30.06F
KANKAKEE*      SUNNY     68  61  79 SE7       30.09F
WHEELING       SUNNY     67  59  75 SE10      30.09F
MORRIS*        SUNNY     69  63  80 SE7       30.06F
ROMEOVILLE*    SUNNY     67  63  86 S8        30.08F
NORTHERLY ISL    N/A     67  56  67 SE8         N/A
$$

LMZ740>746-251500-
SOUTHERN LAKE MICHIGAN

STATION/POSITION SKY/WX   TEMP    WIND        PRES    VSBY  WAVE
                          AIR SEA DIR/SP/G                  HT/PER
                          (F)     (DEG/KT/KT) (MB)    (MI)  (FT/S)
SOUTHERN BUOY              67 72  140/ 17/ 21 1018.9S         4/ 5
WILMETTE HARBOR            65 63  180/ 14/ 21   N/A           4/ 5
HARRISON CRIB              66     150/ 20/ 21   N/A
BURNHAM HARBOR             68     130/  6/ 11   N/A
CALUMET HARBOR             64     140/  8/ 11 1018.8F
BURNS HARBOR               64     140/ 16/ 22 1019.6F
MICHIGAN CITY              63     120/ 16/ 19   N/A
MICHIGAN CITY 6N           64 68  160/ 12/ 16   N/A           1/ 2
ST. JOSEPH                 63 68  120/ 14/ 17 1020.1S         2/ 3
$$

ILZ025>027-034>036-040-047-049-050-058-095>099-251500-
WEST-CENTRAL ILLINOIS

CITY           SKY/WX    TMP DP  RH WIND       PRES   REMARKS
QUINCY         MOSUNNY   73  68  84 SW10      30.03R HAZE
GALESBURG*     MOSUNNY   72  67  83 S7        30.02F
MACOMB*        PTSUNNY   71  69  92 CALM      30.04S
JACKSONVILLE*  PTSUNNY   79  68  69 S7        30.03F HX  81
PITTSFIELD*    CLOUDY    74  70  87 SW6       30.05S
$$

ILZ028>032-037-038-041>044-048-051>054-059>061-251500-
CENTRAL ILLINOIS

CITY           SKY/WX    TMP DP  RH WIND       PRES   REMARKS
PONTIAC        SUNNY     71  69  95 SE10      30.08S
BLOOMINGTON    SUNNY     72  68  87 S9        30.08S
DECATUR        CLOUDY    73  68  84 S5        30.08S
PEORIA         MOSUNNY   75  69  81 S8        30.04F
LACON*           N/A     74  67  79 S8        30.03F HAZE
LINCOLN*       MOSUNNY   73  70  88 SE8       30.05F
SPRINGFIELD    SUNNY     77  67  71 S8        30.05F
TAYLORVILLE    SUNNY     75  68  78 S8        30.06F
$$

ILZ033-039-045-046-055>057-062-063-251500-
EAST-CENTRAL ILLINOIS

CITY           SKY/WX    TMP DP  RH WIND       PRES   REMARKS
CHAMPAIGN      SUNNY     73  68  84 SE8       30.09F HAZE
RANTOUL*       MOSUNNY   71  68  89 SE7       30.09F FOG
MATTOON        MOSUNNY   73  68  84 S9        30.08F HAZE
PARIS*         MOSUNNY   72  69  90 SE3       30.11S
$$

ILZ079-100>102-251500-
SOUTHWEST ILLINOIS

CITY           SKY/WX    TMP DP  RH WIND       PRES   REMARKS
ALTON          MOSUNNY   73  70  88 CALM      30.06F
BELLEVILLE     SUNNY     74  74  99 VRB3      30.06R
CAHOKIA*       MOSUNNY   75  68  78 CALM      30.06R
SPARTA*        CLOUDY    74  69  81 S7        30.09R
$$

ILZ064>066-069>071-074>076-080>082-084>086-088>090-092>094-251500-
SOUTH-CENTRAL ILLINOIS

CITY           SKY/WX    TMP DP  RH WIND       PRES   REMARKS
CARBONDALE     SUNNY     75  72  90 CALM      30.08S
CAIRO*         SUNNY     77  70  81 CALM      30.08S
EFFINGHAM*     SUNNY     74  71  90 E5        30.10S
MARION         SUNNY     77  72  83 S6        30.09S
MT. VERNON     SUNNY     73  66  78 CALM      30.09S
CENTRALIA*     SUNNY     77  71  81 S3        30.07S
SALEM*         SUNNY     76  68  76 S3        30.09R
METROPOLIS*    SUNNY     76  71  84 CALM      30.09S
$$

ILZ067-068-072-073-078-083-087-091-251500-
SOUTHEAST ILLINOIS

CITY           SKY/WX    TMP DP  RH WIND       PRES   REMARKS
LAWRENCEVILLE  SUNNY     74  68  81 SE6       30.10S HAZE
FLORA*         SUNNY     75  69  82 SE6       30.09S
FAIRFIELD*     SUNNY     75  69  80 CALM      30.08S
HARRISBURG*      N/A     74  71  89 CALM      30.09S FOG
ROBINSON*      SUNNY     70  70  99 SE5       30.11S FOG
CARMI*         SUNNY     75  70  85 S3        30.08F HAZE
$$

ABBREVIATIONS USED IN REMARKS
   TC - TEMPERATURE IN CELSIUS
  WCI - WIND CHILL INDEX
   HX - HEAT INDEX
  VSB - VISIBILITY
$$




USA.gov is the U.S. government's official web portal to all federal, state and local government web resources and services.